Location: Ash Swamp
(41.5170°N, 74.6157°W)
Time: 00:06:19
(UTC+00:00)

Daily predictions for brighter satellites

Satellite Brightness Start Highest point End
(mag) Time Altitude Azimuth Time Altitude Azimuth Time Altitude Azimuth
CZ-2C R/B 3.9 00:53:48 10° NNE 00:58:31 57° E 01:03:10 10° S
MOS 1 Rocket 4.1 00:55:40 10° N 01:00:36 63° WNW 01:05:47 10° SSW
Cosmos 1315 Rocket 4.1 00:58:46 10° NNE 01:02:18 27° ENE 01:05:49 10° SE
FREGAT/IRIS 3.8 01:00:42 10° SSW 01:03:11 36° W 01:05:42 10° NNW
SL-08 RB Rocket 4.3 01:00:31 10° S 01:04:54 57° W 01:09:22 10° NNW
Cosmos 1980 4.3 01:02:09 10° S 01:07:14 36° ESE 01:12:21 10° NE
Cosmos 1758 Rocket 3.9 01:03:12 10° SSW 01:07:40 72° W 01:12:10 10° N
DELTA 2 R/B (1) 3.6 01:03:31 10° WSW 01:09:03 72° S 01:14:38 10° E
ARGOS 4.4 01:04:15 10° S 01:09:24 43° W 01:14:34 10° NNW
Atlas Centaur 2 4.0 01:08:48 10° SSW 01:10:05 11° SSW 01:11:27 10° S
Cosmos 2181 Rocket 4.5 01:04:31 10° N 01:10:29 43° ENE 01:16:19 10° SSE
Cosmos 44 4.3 01:07:46 10° SSE 01:10:56 20° ESE 01:14:08 10° ENE
Cosmos 1680 Rocket 4.5 01:06:38 10° SSE 01:11:02 27° E 01:15:27 10° NE
CZ-2C R/B 2.8 01:06:47 10° N 01:12:07 81° WNW 01:17:19 10° SSW
Meteor 1-11 4.3 01:06:34 10° S 01:12:08 63° E 01:17:47 10° NNE
Cosmos 2219 Rocket 2.5 01:07:37 10° SSW 01:13:11 74° WNW 01:18:49 10° NNE
Cosmos 1400 Rocket 2.9 01:10:33 10° NNW 01:14:28 74° W 01:18:19 10° S
Cosmos 2344 4.2 01:09:09 10° SSE 01:15:33 30° ESE 01:21:55 10° NE
Gblst 52 Del rocket 4.3 01:10:37 10° NW 01:16:13 87° NE 01:22:17 10° SE
ISS -1.9 01:15:24 10° SSE 01:16:53 12° SE 01:18:21 10° ESE
EP 3 4.5 01:15:28 10° S 01:17:29 29° ESE 01:19:18 10° ENE
Lacrosse 5 rocket 4.0 01:19:45 10° N 01:21:06 11° NNE 01:22:24 10° NNE
Cosmos 1703 4.3 01:18:05 10° SSW 01:21:50 47° W 01:25:36 10° N
Cosmos 2237 Rocket 2.5 01:17:58 10° S 01:23:22 46° ESE 01:28:48 10° NE
Cosmos 1892 4.5 01:21:34 11° ESE 01:23:35 16° E 01:25:55 10° NE
ATLAS CENTAUR R/B 2.1 01:24:58 10° NW 01:28:25 40° WSW 01:31:52 10° S
Gbstr 26 Del rocket 2.9 01:25:21 10° SSW 01:29:02 44° SE 01:32:36 10° ENE
Cosmos 923 Rocket 4.1 01:26:26 10° S 01:31:32 55° ESE 01:36:42 10° NNE
Cosmos 1953 Rocket 3.8 01:27:50 10° SSW 01:32:08 73° W 01:36:29 10° N
COSMOS 2428 3.4 01:26:44 10° SW 01:32:19 59° WNW 01:37:56 10° NNE
Cosmos 1709 Rocket 4.2 01:29:18 10° S 01:35:38 78° W 01:42:03 10° N
Resurs 01 Rocket 1.6 01:31:44 10° SSE 01:36:08 89° W 01:40:34 10° NNW
ERS-1 Rocket 4.3 01:36:29 13° ESE 01:39:58 26° ENE 01:44:06 10° N
USA 81 4.0 01:35:02 10° S 01:40:15 70° E 01:45:31 10° N
TSX-5 4.1 01:38:01 10° NNW 01:41:51 63° ENE 01:45:32 16° SE
Cosmos 1842 Rocket 3.9 01:39:50 10° N 01:44:02 46° ENE 01:47:05 17° SSE
Hubble Space Telescope 2.8 01:45:32 10° SSW 01:47:20 12° S 01:48:07 12° S
ATLAS 2AS CENTAUR R/B 3.1 01:41:32 10° NNW 01:49:00 58° NE 01:54:28 17° SE
SPOT 1/Viking Rocket 4.0 01:45:49 16° SE 01:49:37 46° ENE 01:54:33 10° N
BREEZE-M DEB (TANK) 2.6 01:43:26 10° SW 01:50:01 81° SSE 01:52:23 10° ENE
Cosmos 1825 4.1 01:51:13 13° E 01:51:40 13° E 01:53:35 10° NE
IRIS 4.5 01:49:28 10° W 01:53:16 50° SSW 01:54:31 27° SE
Cosmos 2221 2.8 01:51:42 10° N 01:55:58 53° E 01:58:38 21° SSE
Cosmos 2333 Rocket 4.2 01:51:52 10° WSW 01:56:57 32° NW 02:02:05 10° N
Cosmos 1408 3.9 01:56:20 20° ESE 01:57:05 22° E 01:59:53 10° NE
USA 215 4.3 01:52:28 10° ENE 01:57:09 20° ESE 01:59:12 18° SSE
Meteor 2-2 Rocket 4.4 01:52:28 10° N 01:58:08 58° ENE 02:02:07 19° SSE
Cosmos 1869 3.5 01:55:39 10° N 01:59:39 58° E 02:02:02 23° SSE
NOSS 0 Rocket 4.2 01:54:03 10° SSW 02:00:10 72° WNW 02:06:22 10° NNE
USA 245 3.6 01:57:35 20° SSE 02:00:17 73° ENE 02:05:15 10° N
Cosmos 2278 Rocket 2.2 01:57:12 10° NNW 02:02:54 85° WSW 02:07:03 19° SSE
CARTOSAT-1 4.4 02:01:04 22° ESE 02:03:15 36° ENE 02:07:13 10° N
Cosmos 2184 Rocket 4.0 01:57:35 10° S 02:03:46 67° E 02:10:03 10° NNE
SPOT 5 3.6 02:02:40 21° ESE 02:05:15 36° ENE 02:09:29 10° N
Cosmos 2151 4.5 02:07:12 19° ESE 02:07:56 20° E 02:11:03 10° NE
MetOp-B 4.4 02:06:59 14° S 02:11:33 69° WSW 02:16:55 10° NNW
SL-16 R/B 2.6 02:09:56 17° S 02:13:52 43° ESE 02:19:13 10° NE
GEOS 3 Rocket 4.2 02:09:26 10° NE 02:14:25 37° ESE 02:17:52 18° S
TIMED 4.5 02:10:54 15° S 02:14:27 65° ESE 02:18:48 10° NNE
In-Cosmos 22 Rocket 4.0 02:10:48 13° S 02:15:30 77° E 02:20:52 10° NNE
SAR-Lupe-2 3.5 02:13:39 10° NNE 02:17:14 68° ESE 02:18:58 28° S
CZ-4B DEB 4.5 02:17:10 38° SE 02:18:11 59° ENE 02:21:31 10° N
Terra 2.6 02:18:01 25° ESE 02:20:05 36° ENE 02:24:26 10° N
Cosmos 1371 Rocket 4.2 02:15:32 10° NNW 02:20:47 61° ENE 02:23:31 28° SE
Cosmos 1076 Rocket 3.4 02:20:06 26° S 02:22:28 70° E 02:26:42 10° NNE
IGS 5A 3.7 02:20:02 22° S 02:22:33 65° WSW 02:26:42 10° NNW
Spot 2 Rocket 3.7 02:19:25 19° S 02:23:03 68° WSW 02:28:10 10° NNW
Cosmos 2112 Rocket 4.2 02:21:46 10° SSW 02:27:06 74° WNW 02:32:29 10° NNE
BREEZE M DEB (TANK) 2.8 02:31:14 10° WNW 02:32:49 32° WSW 02:32:49 32° WSW
BREEZE M DEB (TANK) 4.0 02:29:28 10° SW 02:33:57 88° SSE 02:53:14 10° ENE
Cosmos 2058 3.1 02:33:45 21° SSW 02:36:22 68° W 02:40:29 10° N
Nadezhda 3 Rocket 4.0 02:33:38 10° N 02:40:00 74° E 02:43:15 30° SSE
Cosmos 2074 Rocket 4.4 02:35:26 10° SSW 02:41:33 61° W 02:47:42 10° N
Cosmos 2056 Rocket 3.5 02:38:23 10° NNW 02:43:51 83° ENE 02:46:09 36° SSE
Cosmos 2154 Rocket 3.9 02:40:49 21° S 02:45:09 90° E 02:51:26 10° N
Cosmos 2369 Rocket 3.8 02:44:09 10° N 02:48:37 24° NE 02:51:19 17° E
Iridium 2 3.8 02:44:57 10° N 02:48:43 53° E 02:49:03 51° ESE
Cosmos 44 4.3 02:47:44 10° WSW 02:51:49 41° NW 02:56:00 10° NNE
ISS -3.7 02:49:52 10° WSW 02:53:13 78° NW 02:56:35 10° NE
DELTA 2 R/B (1) 3.6 02:49:52 10° W 02:55:22 62° SSW 02:57:10 40° SE
APEX 4.1 02:54:30 10° N 02:56:33 28° NE 02:56:33 28° NE
Cosmos 1151 Rocket 4.1 02:53:17 10° NNE 02:57:05 30° ENE 02:57:26 29° E
Cosmos 1295 Rocket 4.4 02:54:50 28° S 02:58:18 90° ESE 03:04:26 10° N
Cosmos 1892 4.3 02:56:31 16° SW 02:58:58 32° WNW 03:02:26 10° NNW
Cosmos 2341 Rocket 4.0 02:58:08 36° SSE 03:00:43 66° E 03:06:53 10° NNE
Lacrosse 5 rocket 2.6 02:57:46 10° NNW 03:01:26 31° NE 03:02:39 26° ENE
Cosmos 332 Rocket 4.5 02:57:50 10° N 03:02:22 40° ENE 03:03:27 35° E
Aureole 2 Rocket 2.7 03:00:57 10° NNW 03:03:33 51° WNW 03:03:33 51° WNW
Cosmos 2237 Rocket 4.2 03:02:49 10° WSW 03:07:37 28° NW 03:12:28 10° N
Okean 3 Rocket 3.5 03:08:14 62° SE 03:08:49 71° E 03:13:12 10° NNE
Cosmos 1452 Rocket 3.9 03:04:56 10° N 03:10:02 50° ENE 03:11:22 40° ESE
Cosmos 1606 3.0 03:09:40 10° N 03:13:25 55° ENE 03:13:25 55° ENE
RESURS DK-1 4.1 03:10:17 10° N 03:13:34 22° NE 03:14:18 21° ENE
Cosmos 1943 Rocket 2.6 03:11:11 10° NNW 03:16:44 53° ENE 03:18:23 40° ESE
ERS-1 Rocket 4.0 03:16:29 26° SW 03:18:33 38° W 03:23:14 10° NNW
Cosmos 1340 3.1 03:22:10 51° NE 03:22:10 51° NE 03:25:16 10° NNE
Cosmos 1408 Rocket 3.9 03:22:10 48° E 03:22:10 48° E 03:26:16 10° NNE
Meteor 2-3 Rocket 3.9 03:22:23 48° SE 03:23:24 54° E 03:28:59 10° NNE
Lacrosse 5 4.1 03:28:56 12° E 03:28:56 12° E 03:29:23 10° ENE
Cosmos 1825 3.3 03:26:00 33° WSW 03:26:48 37° WNW 03:30:20 10° N
Cosmos 371 Rocket 3.2 03:23:42 10° NNW 03:28:34 80° WSW 03:29:12 66° S
Cosmos 2344 4.3 03:22:08 10° WSW 03:29:24 52° NW 03:37:15 10° NNE
COSMOS 2455 2.8 03:25:38 10° NNW 03:31:42 81° ENE 03:33:19 51° SE
Meteor 2-12 Rocket 4.4 03:33:05 50° SSE 03:34:46 77° E 03:40:56 10° N
Spot 4 4.2 03:34:46 48° E 03:35:14 49° ENE 03:39:51 10° N
BREEZE-M DEB (TANK) 3.6 03:31:31 10° WNW 03:34:51 28° W 03:34:51 28° W
IRIDIUM 103 4.3 03:36:01 59° SE 03:36:39 65° E 03:41:49 10° N
ATLAS 2AS CENTAUR R/B 3.9 03:33:15 10° NW 03:39:28 31° WSW 03:41:54 25° SW
Cosmos 494 Rocket 4.3 03:40:25 47° E 03:40:25 47° E 03:45:09 10° NNE
USA 215 3.1 03:34:09 10° NE 03:40:44 82° SE 03:46:24 15° SW
Cosmos 1943 3.3 03:43:26 52° ESE 03:43:38 53° ESE 03:49:08 10° NNE
Cosmos 2151 4.4 03:43:45 27° WSW 03:45:00 32° WNW 03:48:49 10° NNW
Meteor 1-26 Rocket 4.3 03:40:13 10° N 03:46:10 73° E 03:47:15 58° SE
Cosmos 1346 Rocket 3.3 03:48:40 55° NNE 03:48:40 55° NNE 03:51:50 10° NNE
Cosmos 1607 4.5 03:48:12 40° ESE 03:48:12 40° ESE 03:53:44 10° NE
Cosmos 864 Rocket 4.4 03:50:09 51° S 03:51:54 87° W 03:58:15 10° N
MOS 1-B Rocket 4.0 03:46:17 10° NNE 03:53:16 82° ESE 03:54:53 53° S
CZ-4C R/B 3.2 03:45:59 10° NNW 03:53:16 67° NE 03:56:51 36° ESE
Cosmos 304 Rocket 3.6 03:49:35 10° NNW 03:54:27 86° ENE 03:54:34 84° ESE
IRIDIUM 106 4.2 03:54:19 70° SSW 03:54:56 86° W 04:00:11 10° N
Terra 3.4 03:56:54 22° WSW 03:57:54 24° W 04:01:43 10° NW
SL-16 R/B 3.9 03:53:14 10° WSW 03:58:07 29° NW 04:03:03 10° N
Cosmos 1782 3.5 03:54:24 10° N 03:57:32 47° NE 03:57:32 47° NE
Cosmos 1656 Rocket 4.4 03:54:42 10° N 03:59:49 41° ENE 04:00:58 36° E
ALOS 2 3.4 04:00:04 42° ENE 04:00:04 42° ENE 04:04:04 10° N
Cosmos 1933 4.2 04:01:19 10° NNW 04:04:46 43° WNW 04:04:46 43° WNW
Cosmos 2366 rocket 4.2 04:03:46 44° SW 04:05:45 67° W 04:12:05 10° N
Cosmos 1328 Rocket 4.4 04:06:26 10° NNW 04:10:19 41° W 04:10:19 41° W
USA 267 4.0 04:06:50 18° E 04:11:30 50° NNE 04:17:46 10° NW
Cosmos 1821 Rocket 4.1 04:10:51 53° ESE 04:11:33 56° E 04:17:30 10° NNE
Cosmos 2218 Rocket 4.4 04:09:50 39° SW 04:11:57 57° W 04:18:08 10° N
Cosmos 1515 Rocket 3.8 04:08:57 10° NNW 04:12:54 64° WNW 04:12:54 64° WNW
Cosmos 44 Rocket 3.8 04:13:02 47° W 04:13:53 54° NW 04:18:34 10° NNE
GP-B 3.6 04:15:40 10° N 04:19:50 53° WNW 04:19:50 53° WNW
Cosmos 1331 Rocket 3.9 04:15:14 10° NNW 04:20:34 76° ENE 04:20:50 74° E
Thor Agena Rocket 4.0 04:16:25 10° N 04:21:20 52° WNW 04:22:14 46° WSW
Sich 1 4.3 04:24:25 32° ENE 04:24:25 32° ENE 04:27:29 10° NNE
BREEZE-M DEB (TANK) 4.4 04:11:18 10° WSW 04:28:19 78° SSE 04:33:02 10° ENE
ISS -1.0 04:27:53 10° WNW 04:30:25 20° NNW 04:32:58 10° NNE
Cosmos 2369 Rocket 2.4 04:27:30 10° NNW 04:32:58 55° WSW 04:33:06 54° WSW
Cosmos 1603 4.3 04:32:09 38° WSW 04:33:54 51° WNW 04:39:29 10° NNE
Cosmos 1812 4.1 04:31:26 10° N 04:34:04 34° NE 04:34:04 34° NE
Cosmos 1633 4.5 04:39:16 26° NW 04:39:16 26° NW 04:41:35 10° NNW
Cosmos 1862 4.2 04:40:17 46° NNE 04:40:17 46° NNE 04:43:09 10° N
Lacrosse 5 rocket 3.5 04:37:01 10° WNW 04:38:15 18° WNW 04:38:15 18° WNW
Cosmos 1934 Rocket 4.0 04:44:57 59° SE 04:45:40 63° E 04:51:52 10° NNE
Cosmos 1110 Rocket 4.3 04:40:36 10° NNW 04:45:38 57° W 04:45:38 57° W
RESURS DK-1 4.1 04:47:55 10° NW 04:50:10 25° WNW 04:50:10 25° WNW
Cosmos 1000 Rocket 4.4 04:47:37 10° N 04:53:59 77° W 04:54:50 66° SSW
Cosmos 2239 Rocket 4.4 04:54:49 64° SW 04:55:43 76° W 05:01:55 10° N
Cosmos 1943 Rocket 3.8 04:55:50 10° NW 04:59:53 22° W 04:59:53 22° W
Cosmos 1302 Rocket 3.9 05:00:39 10° NNW 05:05:39 80° WNW 05:05:39 80° WNW
CZ-4 R/B 4.3 05:03:01 10° NNE 05:07:10 50° ENE 05:07:10 50° ENE
Lacrosse 5 2.0 05:08:05 70° WNW 05:08:15 71° NW 05:13:21 10° NE
Cosmos 1666 Rocket 4.0 05:15:15 60° N 05:15:15 60° N 05:18:51 10° N
Helios 1B rocket 3.3 05:18:54 10° NNE 05:21:58 44° NE 05:21:58 44° NE
Iridium 4 Rocket 3.9 05:23:34 54° ESE 05:24:05 57° E 05:29:23 10° N
Helios 1A 4.2 05:28:41 35° NW 05:28:41 35° NW 05:31:29 10° NNW
SL-16 R/B 4.2 05:27:12 14° ESE 05:31:23 27° ENE 05:36:28 10° N
CZ-4C R/B 3.9 05:35:07 10° NW 05:41:40 32° WSW 05:42:00 32° WSW
Meteor 2-20 Rocket 4.4 05:35:56 10° NNW 05:42:03 69° W 05:42:47 62° SW
SeaSat 1 4.4 05:41:07 10° ENE 05:44:21 18° ESE 05:44:21 18° ESE
Cosmos 1238 Rocket 3.4 05:46:46 79° W 05:46:50 79° W 05:51:34 10° N
Cosmos 2082 Rocket 4.4 05:46:14 12° ESE 05:47:31 13° E 05:50:06 10° ENE
Cosmos 1833 Rocket 4.1 05:49:59 24° ESE 05:50:38 24° ESE 05:55:04 10° NE
CZ-2D R/B 3.4 05:47:29 10° NE 05:52:09 29° E 05:53:05 28° ESE
USA 267 3.3 05:54:08 53° SW 05:54:27 54° SW 06:00:51 10° NW
Meteor 1-25 Rocket 4.0 05:54:36 74° S 05:55:09 89° ESE 06:00:46 10° N
Cosmos 972 Rocket 4.3 05:50:19 10° NNW 05:55:57 55° W 05:55:57 55° W
Cosmos 407 Rocket 4.3 05:55:49 39° ESE 05:56:16 39° ESE 06:01:13 10° NE
COSMOS 2406 3.8 05:55:50 41° ESE 05:56:28 42° ESE 06:01:52 10° NE
SL-24 DEB 4.3 05:53:59 10° N 05:58:43 69° E 05:58:45 69° E
Cosmos 2100 Rocket 4.2 05:59:17 49° SE 06:00:47 63° E 06:06:56 10° NNE
Meteor 1-20 Rocket 4.1 06:04:43 66° SW 06:05:22 73° W 06:11:03 10° N
Cosmos 1459 Rocket 4.1 06:06:22 50° SSE 06:07:48 65° E 06:13:53 10° NNE
Cosmos 1470 Rocket 4.1 06:08:18 49° WNW 06:08:18 49° WNW 06:12:21 10° N
ISS -0.5 06:06:07 10° NNW 06:08:09 15° N 06:10:11 10° NE
Okean 1-7 3.4 06:05:44 10° N 06:10:04 55° E 06:10:16 54° E
Cosmos 1992 Rocket 4.4 06:12:13 10° NNW 06:16:57 47° W 06:16:57 47° W
Meteor 1-18 Rocket 4.2 06:13:11 10° N 06:19:01 90° WNW 06:20:13 58° S
Cosmos 1802 Rocket 4.2 06:17:31 45° SSE 06:19:28 66° E 06:25:51 10° NNE
UNK 4.1 06:28:07 46° SE 06:29:10 60° ENE 06:33:44 10° N
ADEOS II 3.8 06:24:55 10° NE 06:29:13 25° E 06:31:25 19° SE
NPP 4.0 06:26:38 10° NNE 06:31:57 57° E 06:33:20 44° SSE
Meteor 1-19 Rocket 4.1 06:27:26 10° NNW 06:33:03 78° W 06:34:08 58° SSW
Resurs 1-4 Rocket 2.1 06:29:03 10° NNE 06:34:23 72° ESE 06:35:35 53° SSE
Cosmos 1725 Rocket 4.2 06:35:10 37° SSE 06:37:34 62° E 06:43:42 10° NNE
Cosmos 2242 Rocket 4.3 06:37:18 10° NNW 06:41:16 40° W 06:41:16 40° W
SL-8 R/B 4.1 06:40:24 37° W 06:42:04 58° NNW 06:46:49 10° ENE
Spot 1 4.4 06:43:11 56° WSW 06:43:24 56° WSW 06:48:04 10° NNW
ATLAS 5 CENTAUR R/B 4.3 06:42:05 10° NNW 06:46:59 29° NE 06:52:30 10° ESE
Okean 3 4.0 06:43:07 10° N 06:47:14 53° E 06:48:17 41° SE
Okean 1 4.4 06:43:47 10° NNW 06:46:39 32° WNW 06:46:39 32° WNW
Cosmos 1536 3.9 06:50:03 33° ESE 06:50:58 38° E 06:54:44 10° NNE
Lacrosse 5 4.1 06:48:13 10° WNW 06:52:01 21° NNW 06:55:50 10° NNE
Cosmos 2369 4.3 06:48:33 10° NNW 06:54:12 55° ENE 06:59:48 10° SE
Cosmos 1980 Rocket 3.8 06:49:09 10° N 06:54:19 33° ENE 06:59:25 10° ESE
Tsikada Rocket 4.3 06:48:57 10° N 06:55:22 68° E 06:59:28 23° SSE
Cosmos 1869 Rocket 3.7 06:56:12 54° W 06:56:30 56° W 07:00:47 10° N
Cosmos 2173 Rocket 4.4 06:56:53 38° SW 06:58:53 50° WNW 07:05:02 10° N
Cosmos 2061 Rocket 4.0 06:56:52 41° SSW 06:59:13 74° W 07:05:33 10° N
Cosmos 1437 Rocket 2.7 06:55:26 10° NNW 06:59:26 70° W 06:59:27 70° W
MOZ.5/SAFIR/RUBIN 5/SL-8 4.2 07:00:30 44° WSW 07:00:47 45° W 07:05:22 10° NNW
IRAS Rocket 4.5 07:00:59 42° SW 07:01:55 47° W 07:07:14 10° NNW
Meteor 1-5 Rocket 4.2 07:01:58 43° SSW 07:03:56 80° W 07:09:48 10° N
Cosmos 921 Rocket 4.1 06:59:46 10° N 07:03:57 41° ENE 07:07:19 14° SE
Cosmos 1190 Rocket 4.2 07:07:27 41° WSW 07:08:57 57° WNW 07:14:08 10° NNE
Cosmos 2016 Rocket 4.1 07:07:36 38° SW 07:09:51 61° W 07:16:01 10° N
Cosmos 2221 Rocket 3.5 07:05:51 10° N 07:10:18 84° E 07:11:45 42° SSE
Cosmos 1954 Rocket 3.9 07:09:03 43° SSW 07:10:51 87° ESE 07:16:11 10° NNE
Meteor 2-4 Rocket 3.9 07:06:38 10° NNW 07:12:28 60° W 07:14:40 37° SSW
Cosmos 405 Rocket 4.4 07:13:18 21° WNW 07:13:18 21° WNW 07:16:08 10° NNW
Meteor 1-11 Rocket 3.6 07:11:43 36° S 07:14:02 86° E 07:19:36 10° N
Cosmos 2278 4.4 07:08:56 10° NNW 07:14:34 54° ENE 07:20:08 10° SE
SL-16 R/B 2.7 07:12:18 35° SSW 07:14:37 53° W 07:20:44 10° NNW
ATLAS 5 CENTAUR R/B 3.2 07:11:58 10° NW 07:15:56 86° SW 07:30:43 10° SE
Cosmos 1500 4.1 07:17:59 33° W 07:18:03 33° WNW 07:21:31 10° NNW
SeaSat 1 2.6 07:17:21 10° NNE 07:22:14 61° WNW 07:24:07 36° SW
Cosmos 1697 Rocket 2.6 07:16:54 10° NNW 07:22:33 82° WSW 07:27:06 16° SSE
COBE Rocket 4.0 07:22:22 20° SSE 07:25:56 76° ENE 07:30:50 10° N
CZ-4B R/B 3.5 07:22:05 10° N 07:27:04 63° WNW 07:28:58 36° SW
Cosmos 1900 4.3 07:26:42 39° SW 07:28:34 82° WNW 07:33:33 10° NNE
IRS-1D 3.4 07:23:49 10° N 07:28:46 78° WNW 07:30:54 34° SSW
Cosmos 2082 Rocket 2.2 07:28:05 33° SSW 07:30:47 83° WNW 07:36:33 10° NNE
CZ-2D R/B 3.0 07:27:20 10° N 07:32:12 36° WNW 07:34:24 26° WSW
Cosmos 1666 2.9 07:32:42 44° WSW 07:33:23 51° W 07:37:04 10° N
Cosmos 1833 Rocket 3.2 07:31:40 28° WSW 07:34:12 47° WNW 07:39:38 10° NNE
Cosmos 1140 Rocket 4.4 07:32:14 26° WSW 07:34:18 37° WNW 07:39:09 10° N
Aureole 1 Rocket 4.1 07:33:50 30° WSW 07:35:40 44° WNW 07:41:17 10° N
Cosmos 1674 Rocket 3.6 07:36:02 10° N 07:40:24 79° E 07:43:28 19° SSE
Cosmos 1656 4.4 07:36:08 10° NW 07:40:49 30° WSW 07:41:57 28° SW
COSMOS 2406 4.5 07:37:53 19° W 07:40:53 30° NW 07:45:55 10° N
CBERS-1 4.2 07:36:32 10° N 07:41:37 60° WNW 07:44:09 29° SW
Meteor 1-23 Rocket 4.3 07:35:53 10° N 07:41:41 85° E 07:47:19 11° S
Abrixas rocket 3.2 07:42:23 10° NW 07:45:08 41° NNE 07:47:54 10° E
ISS -1.7 07:42:41 10° NW 07:45:43 30° NNE 07:48:44 10° E
Cosmos 192 4.2 07:42:28 10° NNW 07:47:21 69° WSW 07:51:28 14° S
NOSS 3-2 (A) 4.4 07:43:36 16° S 07:47:34 37° ESE 07:53:11 10° NE
Cosmos 1743 2.9 07:47:50 24° S 07:49:58 69° E 07:53:47 10° NNE
Cosmos 2360 4.2 07:44:27 10° NNW 07:50:09 66° WSW 07:55:49 10° S
Cosmos 1850 Rocket 4.1 07:47:36 23° S 07:51:00 78° ESE 07:56:22 10° NNE
Cosmos 2233 Rocket 4.3 07:53:28 23° SW 07:57:07 50° WNW 08:03:10 10° N
Cosmos 2322 Rocket 4.4 07:53:16 10° N 07:58:03 27° NE 08:02:50 10° ESE
Cosmos 1733 Rocket 3.8 07:57:57 26° WSW 07:59:41 36° WNW 08:03:42 10° N
ARIANE 5 R/B 2.5 07:55:32 10° NNE 08:00:39 86° WNW 08:04:30 18° SSW
Cosmos 1908 Rocket 3.6 07:57:28 19° S 08:00:40 83° E 08:05:09 10° N
Cosmos 1066 Rocket 4.3 07:56:31 10° NNW 08:02:20 64° W 08:07:47 11° S
SL-08 R/B 3.3 07:58:13 12° S 08:02:31 71° WSW 08:07:21 10° NNW
BREEZE-M DEB (TANK) 4.0 08:00:39 10° WNW 08:04:06 59° SSW 08:17:36 10° SE
IRS-1C 4.3 07:59:05 10° N 08:04:21 61° WNW 08:08:02 20° SSW
Cosmos 1242 Rocket 2.4 08:01:30 10° N 08:04:59 83° E 08:08:17 11° S
ADEOS II 2.7 08:04:06 10° N 08:09:01 41° WNW 08:12:21 19° SW
Cosmos 1741 Rocket 4.0 08:05:23 20° SSW 08:09:01 77° WNW 08:14:16 10° NNE
Cosmos 1818 3.9 08:03:36 10° NNW 08:09:04 71° ENE 08:14:29 10° SE
Spot 4 Rocket 4.0 08:08:04 10° NNE 08:13:15 87° ESE 08:17:56 13° SSW
Resurs 1-4 Rocket 4.0 08:10:27 10° NNW 08:13:34 16° WNW 08:16:39 10° W
ATLAS 2A CENTAUR R/B 4.4 08:15:31 14° SSW 08:16:06 15° SSW 08:18:37 10° SSE
Cosmos 1378 3.1 08:13:03 10° NNW 08:16:47 61° W 08:20:04 13° S
CSL-04 DEB 4.4 08:15:21 10° SSE 08:19:30 86° WSW 08:23:35 10° NNW
USA 238 DEB 3.8 08:20:44 13° SSW 08:26:41 72° ESE 08:33:31 10° NE
USA 238 3.8 08:20:49 13° SSW 08:26:46 72° ESE 08:33:36 10° NE
CZ-4B R/B 4.5 08:24:17 10° ESE 08:26:49 19° ENE 08:29:20 10° NNE
Nadezhda 4 Rocket 4.4 08:22:39 10° N 08:29:00 71° E 08:35:18 10° SSE
Cosmos 1975 Rocket 3.4 08:27:26 10° N 08:31:53 72° E 08:36:20 10° SSE
ATLAS 5 CENTAUR R/B 2.5 08:26:11 10° NW 08:32:01 63° WSW 08:38:41 10° SSE
OE (NEXTSAT) 4.3 08:33:24 15° WSW 08:36:08 83° SSE 08:39:35 10° ENE
CENTAUR R/B 3.3 08:30:42 10° S 08:36:08 47° ESE 08:42:29 10° NE
H-2A R/B 2.0 08:31:56 10° S 08:36:20 77° WSW 08:40:39 10° NNW
Cosmos 1975 2.8 08:33:09 10° SSW 08:37:02 67° W 08:41:01 10° N
PSLV R/B 4.5 08:33:43 10° NNE 08:37:55 48° E 08:42:07 10° S
SL-27 R/B 2.4 08:35:04 13° SSW 08:38:13 77° WNW 08:41:42 10° NNE
Cosmos 1980 Rocket 2.8 08:33:08 10° NW 08:38:18 37° WSW 08:43:25 10° S
Gbstr 26 Del rocket 3.3 08:34:07 10° WNW 08:38:31 59° SW 08:43:55 10° SE
CZ-2C R/B 2.9 08:35:32 10° N 08:39:36 71° WNW 08:43:35 10° SSW
CZ-4C R/B 2.7 08:37:27 10° S 08:40:40 67° WSW 08:43:49 10° NNW
IDEFIX/ARIANE 42P 2.7 08:39:09 10° N 08:44:15 58° WNW 08:49:18 10° SSW
Okean 2 Rocket 3.9 08:41:47 10° S 08:46:00 52° E 08:50:18 10° NNE
Cosmos 1842 3.2 08:42:26 10° NNW 08:46:23 72° W 08:50:18 10° S
ERS-2 2.3 08:47:19 10° S 08:50:51 49° W 08:54:24 10° NNW
BREEZE-M DEB (TANK) 2.5 08:48:07 10° WNW 08:51:16 75° NNE 08:54:17 10° ESE
Cosmos 2208 Rocket 4.0 08:49:57 10° NNW 08:55:22 81° WSW 09:00:40 10° SSE
Cosmos 1867 3.6 08:50:14 10° SW 08:55:39 77° WNW 09:01:08 10° NNE
CZ-2C R/B 2.7 08:54:57 10° NNE 08:59:42 66° ESE 09:04:17 10° S
MSX 4.0 08:54:32 10° N 09:00:12 64° WNW 09:05:51 10° SSW
SL-16 R/B 2.2 08:55:40 10° NNW 09:01:23 83° WSW 09:07:02 10° SSE
ERBS 2.2 08:59:16 10° SW 09:02:35 89° NE 09:05:53 10° NE
Cosmos 1814 Rocket 3.9 08:58:12 10° NNW 09:03:20 74° WSW 09:08:28 10° S
Okean 2 4.1 09:00:36 10° NNW 09:04:19 35° W 09:08:02 10° SSW
